Location: Brede
(50.9167°N, 0.6000°E)
Time: 02:32:18
(UTC+00:00)

Cosmos 923 Rocket - Pass Details

Date: 08 August 2020
Orbit: 758 x 785 km, 74.0° (Epoch: 25 September)

Event Time Altitude Azimuth Distance (km) Brightness Sun altitude
Rises 02:03:26 0° 333° (NNW) 3,286 7.7 -18.1°
Reaches altitude 10° 02:05:51 10° 331° (NNW) 2,352 6.9 -17.9°
Maximum altitude 02:11:08 66° 251° (WSW) 853 4.0 -17.4°
Enters shadow 02:14:42 21° 173° (S) 1,703 5.4 -17.1°
